Wind_Speed
6 3 6 10 8 7 5 4 5 3 5 2 7 5 10 14 13 25 28 23 27 37 41 44 43 41 42 44 45 42 40 37 35 34 33 31 28 24 18 18 16 12 8 5
3 6 11 8 3 6 5 5 5 6 5 5 5 9 10 8 15 28 40 49 31 41 40 41 42 43 46 45 48 47 44 39 36 34 34 32 29 25 20 20 18 14 9 6
8 7 5 7 5 5 4 5 4 8 5 3 3 7 5 8 18 28 34 46 40 40 44 44 47 48 48 49 52 53 49 42 37 37 36 33 31 26 26 26 22 16 12 8
5 5 8 5 5 8 6 8 8 6 2 4 4 5 6 7 9 8 25 30 39 40 43 43 51 51 53 54 52 56 51 45 41 39 38 36 35 34 32 28 23 17 13 10
9 5 6 6 8 8 8 7 8 5 5 3 4 2 7 3 6 10 11 28 34 43 41 43 53 59 55 54 55 57 55 49 44 43 41 38 36 32 30 28 24 20 16 12
6 3 5 8 6 7 5 4 5 5 3 2 5 7 5 5 7 5 8 33 29 33 37 40 45 58 57 56 55 56 59 52 48 45 42 41 37 33 33 32 28 24 18 14
8 3 5 8 3 4 4 5 2 3 0 10 2 5 8 8 9 9 9 19 21 17 29 40 45 54 52 57 57 57 60 57 53 50 46 44 39 35 34 33 30 26 21 16
5 3 8 9 1 3 4 8 6 6 5 7 4 6 6 8 9 20 9 9 15 14 20 37 47 54 55 60 61 61 62 60 55 52 48 44 40 37 34 32 29 25 18 14
5 5 4 3 4 1 3 3 6 2 1 3 4 7 2 14 13 18 20 16 15 13 11 26 40 47 55 61 66 66 65 63 59 55 50 45 41 39 34 31 27 22 19 16
2 5 3 6 3 7 5 3 2 2 4 4 4 2 3 12 13 14 15 20 23 20 19 17 29 44 51 59 64 65 67 67 64 60 53 47 45 40 33 30 27 24 21 18
2 2 6 4 5 4 4 4 4 2 3 4 3 2 3 5 7 9 10 22 26 24 23 23 24 38 47 55 62 69 68 66 67 63 56 51 47 39 32 30 28 25 21 19
3 3 2 3 8 14 9 4 3 1 2 1 2 4 6 7 8 12 17 24 27 28 24 22 16 31 40 48 53 62 66 67 67 63 58 54 44 39 33 29 27 24 21 20
2 2 2 6 3 3 5 4 3 2 1 4 5 4 8 13 13 20 19 27 28 28 29 23 11 11 27 38 43 48 52 55 59 61 59 53 43 37 30 26 26 24 22 19
3 2 4 5 3 1 4 10 4 2 1 5 6 6 9 13 12 16 27 31 29 25 27 24 17 5 11 24 33 37 39 44 50 56 56 47 41 34 28 26 26 24 20 19
4 3 3 5 5 6 8 11 7 8 7 6 4 12 13 13 8 16 24 30 29 23 22 23 20 14 2 11 20 27 33 38 43 49 44 41 39 31 28 27 26 23 21 21
2 2 3 4 10 9 12 12 13 11 10 18 15 23 13 16 11 15 25 21 25 19 15 15 20 21 16 6 5 14 23 29 32 35 38 37 38 32 29 27 26 23 24 23
5 4 2 3 2 4 8 17 14 6 6 7 9 13 8 5 9 12 18 18 13 18 13 7 12 14 17 18 8 3 10 17 24 27 30 35 38 33 30 28 27 25 24 23
6 5 3 3 1 4 6 3 5 10 9 10 13 12 14 19 24 29 22 15 13 7 14 8 7 9 13 17 18 13 7 9 16 22 27 32 34 32 30 29 27 26 26 24
9 5 2 3 4 7 5 5 6 7 10 17 16 17 19 22 12 20 19 16 14 20 17 10 9 10 6 5 14 16 16 9 12 13 20 26 29 29 28 27 27 26 25 23
5 3 4 3 4 7 6 4 14 6 16 9 14 11 12 13 9 11 30 27 17 12 20 19 11 8 5 7 6 7 17 15 8 14 17 18 18 20 21 22 24 23 21 20
2 1 5 5 5 8 7 7 12 7 6 4 1 11 17 6 15 20 19 29 22 13 12 15 13 14 4 6 3 8 8 11 2 10 5 9 15 18 19 17 17 17 18 18
6 4 4 3 4 13 17 7 9 6 4 3 6 9 14 15 13 15 14 11 15 10 14 16 12 8 10 21 7 5 9 5 3 9 10 10 8 8 12 13 14 13 13 16
5 9 4 9 7 7 9 9 17 16 23 21 21 22 16 23 21 22 22 17 12 12 16 9 12 15 14 14 19 19 5 11 5 8 10 8 6 9 10 11 13 13 16 20
6 14 7 6 14 23 38 37 33 29 33 35 33 31 28 27 28 27 25 24 21 15 11 13 13 11 13 19 18 18 21 14 10 9 9 14 11 19 10 9 11 13 16 19
12 5 11 17 23 29 34 36 34 35 30 27 26 28 26 24 28 29 30 28 24 19 16 15 14 16 12 12 15 19 22 21 20 25 20 20 17 16 11 13 15 16 19 19
16 15 8 13 25 22 22 29 26 26 27 25 24 23 22 24 26 23 26 27 26 24 19 17 15 14 12 10 8 11 13 14 14 15 16 15 13 10 9 12 13 16 21 23
Wind_Direction
188 128 194 217 198 203 210 202 230 248 240 252 254 255 271 232 218 204 217 236 214 211 221 216 218 223 219 217 211 203 199 197 198 197 198 200 202 199 194 186 184 178 171 150
71 218 224 218 178 194 202 239 270 274 261 175 269 271 260 218 225 213 207 233 236 218 211 212 218 225 228 221 214 210 206 203 204 207 204 202 202 201 197 190 189 186 182 172
181 221 185 176 183 165 207 189 224 234 297 252 276 292 232 265 217 225 221 221 220 218 218 213 217 223 228 225 219 211 207 207 209 211 207 203 202 200 195 195 195 191 186 184
216 243 198 181 213 167 236 209 231 249 135 256 152 280 252 256 233 222 221 222 218 222 225 227 224 220 225 229 222 213 211 209 212 213 210 211 206 203 201 197 195 192 192 192
232 200 186 196 212 177 223 207 205 215 209 71 240 231 269 294 260 250 248 238 233 231 231 224 225 224 226 225 223 215 213 210 212 212 215 216 213 214 203 195 196 197 199 196
237 211 179 219 235 193 199 145 52 52 108 252 189 183 264 215 208 250 221 241 247 231 224 227 229 223 221 221 219 213 213 211 211 212 216 220 218 212 204 200 200 200 201 199
342 317 355 29 28 9 120 79 297 312 163 248 231 137 234 242 238 230 228 250 251 247 235 227 223 220 217 216 216 214 214 211 210 212 216 219 216 213 208 206 203 200 202 204
16 327 13 336 339 250 212 165 166 228 209 258 123 232 252 253 13 10 353 302 285 284 253 234 229 224 221 220 218 216 215 212 211 213 216 217 214 214 211 210 208 209 208 209
15 275 341 345 344 18 314 181 155 177 356 97 230 288 303 4 1 357 349 352 349 327 270 246 234 229 225 222 220 218 216 215 213 213 215 214 213 214 211 209 211 212 211 217
121 287 22 295 337 15 69 352 67 7 208 233 268 280 301 347 341 342 342 343 358 346 316 268 244 238 229 227 223 219 219 218 215 213 213 213 213 213 209 209 213 214 217 224
29 162 305 341 41 282 336 23 -0 125 140 196 214 273 331 304 312 324 330 344 4 6 338 300 244 236 234 228 224 224 220 220 217 214 213 214 213 209 208 214 218 220 223 232
21 142 292 258 88 57 65 48 48 65 207 226 177 244 332 323 312 338 344 347 6 15 6 336 277 228 227 221 218 221 222 221 221 216 215 216 210 206 205 212 217 221 225 223
309 353 6 351 347 39 50 47 35 232 12 237 165 216 32 356 342 342 348 353 358 11 15 13 336 229 223 219 215 218 219 219 222 219 217 215 207 204 204 209 216 219 218 220
99 140 168 194 230 174 290 316 351 107 229 334 258 320 348 343 335 337 346 343 348 4 18 22 18 352 204 210 215 219 220 220 224 221 217 210 205 202 202 208 213 214 214 219
116 208 206 238 270 279 268 284 271 235 219 224 267 308 307 314 309 324 333 340 343 356 17 28 33 35 57 216 213 216 221 222 222 221 212 206 202 197 200 208 211 208 209 210
19 245 189 262 237 242 267 259 253 256 247 254 264 272 264 264 300 341 337 329 344 356 8 30 52 61 60 63 219 225 222 222 221 217 209 202 198 195 198 208 208 200 201 205
169 167 127 268 193 236 274 250 231 223 216 228 244 265 272 279 291 302 322 310 327 4 9 7 31 46 47 51 61 156 206 213 211 207 203 199 194 192 196 203 203 201 205 211
170 154 159 230 168 236 238 168 180 213 245 247 249 252 244 264 281 274 269 285 267 313 34 13 10 19 50 41 52 49 154 176 194 196 198 194 190 193 197 200 204 207 213 221
188 141 190 180 212 285 280 212 192 183 252 236 237 247 245 256 252 276 277 261 265 248 254 37 34 38 1 353 28 33 66 160 180 190 186 186 193 200 204 204 210 217 223 231
105 107 141 156 183 239 228 208 209 95 262 278 240 252 244 249 251 253 268 263 256 240 239 242 270 346 286 0 321 19 44 64 167 182 187 192 198 207 212 220 222 225 229 233
145 141 194 210 239 276 240 229 151 184 255 357 295 260 266 204 234 260 258 260 248 233 223 235 242 258 308 58 78 116 116 38 105 75 127 200 211 217 218 221 222 218 220 232
191 197 214 204 193 272 216 149 191 214 225 217 312 337 306 274 274 286 286 277 236 241 241 240 233 236 239 215 133 52 30 60 249 130 102 96 127 173 180 184 196 211 236 262
255 204 204 199 213 240 209 230 226 233 262 247 267 281 290 307 286 301 295 291 276 271 240 249 247 232 225 210 214 211 302 207 155 240 219 217 222 233 232 233 247 251 267 278
244 241 241 290 242 254 262 265 262 261 265 270 266 274 283 282 274 284 288 284 283 282 280 262 243 221 217 229 221 229 218 213 246 262 237 223 230 243 241 256 262 277 288 291
246 222 242 255 264 270 264 262 265 270 275 275 273 270 271 267 260 262 277 277 277 281 267 255 251 236 226 217 221 217 215 211 208 207 211 222 233 236 251 266 281 286 288 296
253 255 254 266 279 279 272 268 274 278 272 269 274 272 275 269 263 251 254 261 265 264 266 254 245 242 225 229 235 222 204 202 207 201 201 206 219 245 260 267 267 281 283 284
Height
1478 1485 1492 1486 1484 1483 1486 1488 1488 1484 1478 1478 1479 1479 1473 1470 1465 1463 1469 1476 1479 1475 1476 1484 1489 1494 1498 1503 1507 1513 1514 1520 1524 1527 1530 1535 1538 1542 1545 1548 1551 1552 1553 1554
1481 1486 1475 1472 1477 1480 1482 1487 1488 1481 1475 1477 1475 1475 1469 1463 1462 1459 1460 1462 1467 1473 1472 1478 1482 1485 1491 1497 1504 1506 1512 1515 1519 1523 1526 1531 1535 1539 1543 1545 1548 1550 1552 1554
1477 1470 1466 1471 1474 1480 1482 1486 1485 1484 1474 1471 1473 1476 1465 1452 1452 1452 1455 1452 1459 1460 1464 1467 1472 1476 1483 1487 1493 1498 1505 1510 1514 1519 1523 1528 1533 1537 1539 1541 1545 1548 1550 1552
1468 1462 1465 1470 1471 1475 1483 1474 1474 1477 1481 1494 1472 1495 1466 1453 1450 1447 1444 1447 1449 1452 1457 1460 1463 1467 1473 1477 1486 1493 1498 1503 1509 1514 1519 1522 1524 1527 1532 1538 1542 1545 1548 1550
1462 1459 1462 1466 1467 1465 1471 1464 1470 1472 1481 1483 1478 1489 1468 1456 1456 1449 1441 1439 1442 1444 1447 1451 1455 1458 1462 1471 1476 1484 1493 1499 1504 1509 1514 1517 1521 1526 1531 1535 1539 1542 1545 1547
1455 1452 1454 1455 1453 1456 1455 1462 1472 1481 1486 1497 1475 1483 1474 1460 1448 1440 1439 1437 1436 1437 1441 1444 1447 1453 1458 1465 1471 1478 1485 1492 1498 1504 1509 1512 1517 1523 1528 1530 1534 1538 1542 1544
1468 1456 1454 1453 1455 1454 1457 1471 1494 1495 1497 1483 1464 1481 1460 1442 1438 1433 1432 1432 1433 1436 1438 1439 1442 1445 1452 1457 1461 1468 1477 1483 1491 1496 1501 1507 1513 1518 1522 1526 1529 1534 1538 1541
1491 1474 1467 1462 1461 1461 1461 1470 1494 1491 1496 1475 1469 1473 1456 1436 1436 1438 1433 1431 1431 1433 1433 1433 1434 1436 1441 1448 1452 1459 1466 1475 1483 1489 1495 1502 1508 1513 1518 1522 1527 1532 1536 1539
1497 1483 1471 1465 1464 1462 1462 1468 1466 1474 1474 1483 1473 1454 1438 1441 1441 1440 1437 1433 1429 1427 1428 1428 1428 1431 1433 1438 1441 1447 1455 1464 1474 1481 1490 1496 1502 1508 1513 1520 1525 1529 1533 1536
1497 1497 1476 1469 1466 1465 1466 1472 1473 1480 1477 1483 1473 1463 1468 1457 1452 1446 1441 1436 1429 1423 1421 1421 1423 1424 1426 1429 1436 1443 1448 1453 1462 1471 1482 1488 1494 1503 1510 1516 1520 1524 1529 1532
1496 1497 1485 1474 1482 1485 1477 1483 1485 1482 1482 1483 1477 1475 1461 1462 1457 1454 1447 1441 1434 1424 1419 1414 1413 1415 1418 1423 1427 1432 1441 1448 1457 1467 1475 1481 1488 1499 1504 1511 1515 1519 1524 1528
1498 1501 1498 1487 1489 1484 1484 1493 1493 1486 1482 1491 1487 1479 1463 1462 1458 1454 1449 1444 1436 1429 1420 1413 1406 1407 1412 1416 1421 1425 1433 1439 1447 1458 1468 1475 1486 1494 1498 1505 1512 1516 1519 1523
1498 1506 1508 1495 1493 1487 1492 1493 1493 1494 1496 1486 1480 1475 1463 1461 1457 1454 1451 1446 1439 1431 1422 1415 1409 1405 1409 1413 1418 1423 1428 1434 1441 1452 1462 1472 1482 1489 1496 1501 1507 1512 1515 1519
1497 1505 1505 1511 1499 1502 1500 1493 1493 1495 1500 1499 1489 1474 1466 1466 1462 1455 1451 1448 1442 1435 1427 1421 1416 1412 1411 1414 1418 1423 1429 1434 1439 1446 1455 1468 1477 1484 1491 1498 1503 1507 1511 1514
1499 1505 1502 1501 1498 1495 1494 1492 1493 1492 1491 1496 1478 1478 1470 1468 1466 1458 1453 1449 1444 1438 1432 1428 1422 1418 1417 1418 1420 1424 1427 1431 1436 1442 1452 1463 1473 1481 1487 1495 1499 1502 1505 1510
1499 1507 1501 1500 1494 1493 1493 1488 1486 1487 1487 1481 1479 1470 1467 1464 1462 1456 1453 1450 1447 1441 1436 1435 1431 1427 1424 1423 1422 1423 1426 1430 1435 1441 1449 1458 1466 1475 1483 1490 1494 1497 1500 1505
1500 1502 1507 1501 1494 1497 1501 1477 1477 1476 1474 1472 1478 1468 1462 1459 1456 1454 1454 1451 1449 1445 1439 1439 1436 1433 1429 1426 1424 1424 1426 1429 1434 1438 1446 1453 1461 1469 1477 1485 1489 1493 1497 1500
1498 1501 1506 1511 1500 1507 1467 1463 1466 1470 1467 1465 1461 1458 1457 1456 1454 1452 1451 1449 1446 1444 1443 1440 1438 1435 1430 1431 1428 1427 1425 1428 1433 1437 1443 1450 1457 1466 1473 1479 1486 1489 1493 1495
1486 1496 1507 1517 1505 1476 1463 1462 1466 1467 1459 1448 1450 1448 1448 1448 1447 1445 1445 1446 1441 1439 1441 1440 1439 1436 1433 1434 1431 1433 1427 1430 1435 1439 1441 1448 1457 1465 1471 1474 1481 1486 1488 1490
1485 1488 1500 1507 1519 1502 1460 1453 1451 1457 1453 1442 1443 1442 1442 1444 1448 1438 1440 1440 1439 1436 1438 1439 1441 1439 1435 1435 1436 1435 1431 1436 1434 1436 1442 1447 1454 1463 1467 1474 1477 1480 1482 1485
1485 1491 1500 1500 1507 1473 1452 1446 1450 1463 1450 1438 1438 1437 1437 1439 1435 1435 1434 1432 1434 1434 1433 1434 1434 1436 1436 1434 1442 1440 1436 1441 1439 1440 1438 1443 1452 1459 1463 1467 1472 1474 1478 1480
1480 1482 1490 1487 1495 1467 1439 1445 1447 1440 1437 1436 1436 1435 1435 1433 1432 1431 1430 1430 1430 1430 1430 1432 1433 1434 1435 1437 1440 1444 1444 1442 1448 1444 1449 1451 1456 1461 1462 1464 1469 1472 1473 1476
1478 1463 1464 1460 1452 1434 1432 1430 1431 1430 1432 1432 1432 1431 1431 1433 1430 1428 1427 1428 1429 1427 1428 1428 1429 1430 1432 1433 1435 1436 1446 1447 1442 1451 1453 1453 1458 1464 1464 1464 1466 1465 1467 1470
1458 1452 1452 1451 1431 1428 1427 1427 1426 1427 1425 1424 1424 1424 1425 1426 1427 1424 1423 1421 1425 1426 1424 1426 1428 1430 1431 1433 1434 1437 1439 1439 1446 1449 1447 1450 1452 1455 1454 1457 1459 1458 1459 1461
1447 1448 1439 1430 1422 1423 1421 1417 1417 1418 1417 1415 1415 1415 1417 1419 1419 1421 1420 1418 1419 1422 1424 1425 1427 1429 1431 1431 1433 1433 1433 1435 1437 1440 1442 1451 1454 1455 1450 1450 1450 1449 1454 1452
1437 1433 1432 1419 1415 1415 1410 1410 1410 1410 1409 1408 1408 1409 1411 1412 1412 1414 1415 1416 1415 1416 1420 1423 1424 1425 1427 1428 1430 1430 1430 1433 1435 1437 1441 1446 1448 1449 1446 1450 1449 1449 1449 1447